Location: Ettringen
(48.1054°N, 10.6545°E)
Time: 20:44:47
(UTC+00:00)

COSMOS 2406 - Pass Details

Date: 18 November 2025
Orbit: 845 x 858 km, 71.0° (Epoch: 04 December)

Event Time Altitude Azimuth Distance (km) Brightness Sun altitude
Rises 18:07:08 0° 330° (NNW) 3,418 6.7 -25.0°
Reaches altitude 10° 18:09:36 10° 327° (NNW) 2,479 6.0 -25.4°
Maximum altitude 18:15:13 63° 248° (WSW) 945 3.6 -26.3°
Enters shadow 18:19:02 21° 172° (S) 1,823 4.8 -27.0°
